Webcam Flughafen St.Gallen-Altenrhein

Live-Bilder und Zeitraffer LSZR / ACH.

 

Live aus Altenrhein
LIVE
LSZR 211450Z 30004KT 6000 BKN015 00/M03 Q1018 NOSIG RMK L
Zeitraffer heute
2019-01-21 00:14:24
LSZR 202250Z AUTO VRB01KT 4700 BR OVC060 M02/M03 Q1017
Zeitraffer gestern
2019-01-20 00:14:30
LSZR 192250Z AUTO 10001KT 5000 NSC M05/M06 Q1013
Zeitraffer vor 3 Tagen
2019-01-18 00:14:42
LSZR 172250Z AUTO VRB01KT 9999 FEW037 BKN043 BKN060 02/M00 Q1014